Flag for U.S.A. Weather past 2 weeks in Glendale, Arizona, U.S.A.

Now
85 °F

Thundershowers. Clear.


Feels Like: 87 °F
Forecast: 86 / 107 °F
Wind: 8 mph from East

Location: Phoenix-Deer Valley Municipal Airport

Current Time: Jul 3, 2015 at 5:29:25 AM

Latest Report: Jul 3, 2015 at 4:53 AM


Visibility: 10 mi

Pressure: 29.75 "Hg

Humidity: 51%

Dew point: 65 °F

Location of GlendaleLocation

Historic Weather in Glendale — Graph

°F

Glendale temperature yesterday

Maximum temperature yesterday: 104 °F (at 4:53 PM)
Minimum temperature yesterday: 83 °F (at 5:53 AM)
Average temperature yesterday: 94 °F

Past Weeks' High & Low Weather Summary

 TemperatureHumidityPressure
High112 °F (Jun 18, 2:53 PM)60% (Jul 1, 5:53 AM)29.90 "Hg (Jul 1, 5:53 AM)
Low74 °F (Jun 20, 4:53 AM)2% (Jun 19, 4:53 PM)29.62 "Hg (Jun 19, 5:53 PM)
Average95 °F22%29.75 "Hg
* Reported Jun 18 3:53 AM — Jul 3 3:53 AM, Glendale, Weather by CustomWeather, © 2015

Note: Actual official high and low records may vary slightly from our data, if they occured in-between our weather recording intervals... More about our weather records

Advertising

Glendale weather history for previous 24 hours

 ConditionsComfort  
Time TempWeatherWind HumidityBarometerVisibility
3:53 AM
Fri, Jul 3
88 °FPassing clouds.5 mph38%29.73 "Hg10 mi
2:53 AM86 °FThunderstorms. Passing clouds.5 mph51%29.75 "Hg10 mi
1:53 AM90 °FThundershowers. Passing clouds.6 mph38%29.72 "Hg10 mi
12:53 AM93 °FThundershowers. Clear.5 mph29%29.71 "Hg10 mi
11:53 PM
Thu, Jul 2
94 °FThundershowers. Clear.12 mph28%29.70 "Hg10 mi
10:53 PM96 °FClear.16 mph25%29.70 "Hg10 mi
9:53 PM97 °FClear.13 mph23%29.70 "Hg10 mi
8:53 PM98 °FClear.9 mph22%29.69 "Hg10 mi
7:53 PM99 °FClear.15 mph22%29.67 "Hg10 mi
6:53 PM101 °FSunny.14 mph20%29.65 "Hg10 mi
5:53 PM103 °FSunny.14 mph19%29.65 "Hg10 mi
4:53 PM104 °FSunny.13 mph19%29.67 "Hg10 mi
3:53 PM103 °FSunny.15 mph20%29.70 "Hg10 mi
2:53 PM101 °FSunny.16 mph23%29.74 "Hg10 mi
1:53 PM102 °FSunny.14 mph22%29.76 "Hg10 mi
12:53 PM99 °FSunny.7 mph25%29.79 "Hg10 mi
11:53 AM98 °FSunny.12 mph25%29.82 "Hg10 mi
10:53 AM96 °FSunny.6 mph27%29.83 "Hg10 mi
9:53 AM94 °FSunny.12 mph29%29.84 "Hg10 mi
8:53 AM90 °FSunny.6 mph33%29.85 "Hg10 mi
7:53 AM87 °FSunny.8 mph36%29.84 "Hg10 mi
6:53 AM85 °FSunny.3 mph40%29.84 "Hg10 mi
5:53 AM83 °FSunny.No wind43%29.83 "Hg10 mi
Weather by CustomWeather, © 2015

See weather overviewHow to use our weather pages